This demonstration page uses our WeatherBlox Daily Observations layout. Learn more.

40.92945, -100.16068

Hourly Observations for March 5, 2019

Temp ( °F °C ) Dew Point ( °F °C ) Humidity (%) Winds ( mph kmh ) Pressure ( in mb ) Visibility ( mi km ) Precip ( " mm )
12:15 am 00:15 Clear -2 -18.8 -8 -22.2 75 75 WNW 12 19 30.53 1034 10 16.09344 0 0
12:35 am 00:35 Clear -1 -18.6 -8 -22.2 73 73 WNW 10 17 30.56 1035 10 16.09344 0 0
12:55 am 00:55 Clear -4 -19.9 -10 -23.2 75 75 WNW 8 13 30.59 1036 10 16.09344 0 0
1:15 am 01:15 Clear -2 -19.1 -9 -22.7 73 73 WNW 14 22 30.56 1035 10 16.09344 0 0
1:35 am 01:35 Clear -2 -19.1 -8 -22.4 75 75 WNW 15 24 30.56 1035 10 16.09344 0 0
1:55 am 01:55 Clear -3 -19.2 -8 -22.4 76 76 WNW 15 24 30.59 1036 10 16.09344 0 0
2:15 am 02:15 Clear -1 -18.5 -7 -21.9 75 75 WNW 10 17 30.56 1035 10 16.09344 0 0
2:35 am 02:35 Clear -2 -19.1 -9 -22.6 74 74 WNW 10 17 30.56 1035 10 16.09344 0 0
2:55 am 02:55 Clear -3 -19.5 -9 -22.9 75 75 WNW 15 24 30.59 1036 10 16.09344 0 0
3:15 am 03:15 Clear 0 -18 -7 -21.6 74 74 WNW 16 26 30.56 1035 10 16.09344 0 0
3:35 am 03:35 Clear 1 -17.3 -6 -21.1 72 72 NW 16 26 30.56 1035 10 16.09344 0 0
3:55 am 03:55 Clear 2 -16.5 -5 -20.8 70 70 WNW 15 24 30.53 1034 10 16.09344 0 0
4:15 am 04:15 Clear 2 -16.5 -5 -20.8 70 70 WNW 17 28 30.53 1034 10 16.09344 0 0
4:35 am 04:35 Clear 2 -16.7 -6 -21 70 70 WNW 17 28 30.59 1036 10 16.09344 0 0
4:55 am 04:55 Clear 1 -17.5 -7 -21.5 71 71 WNW 14 22 30.59 1036 10 16.09344 0 0
5:15 am 05:15 Clear 0 -17.7 -7 -21.6 72 72 WNW 16 26 30.59 1036 10 16.09344 0 0
5:35 am 05:35 Clear -1 -18.5 -8 -22.3 72 72 WNW 14 22 30.62 1037 10 16.09344 0 0
5:55 am 05:55 Clear -1 -18.4 -8 -22.4 71 71 WNW 13 20 30.62 1037 10 16.09344 0 0
6:15 am 06:15 Clear 0 -18 -8 -22 71 71 WNW 13 20 30.62 1037 10 16.09344 0 0
6:35 am 06:35 Clear -1 -18.1 -8 -22.2 70 70 NW 12 19 30.65 1038 10 16.09344 0 0
6:55 am 06:55 Clear -1 -18.5 -9 -23 68 68 WNW 10 17 30.62 1037 10 16.09344 0 0
7:15 am 07:15 Sunny -2 -18.7 -9 -22.9 70 70 NNW 7 11 30.68 1039 10 16.09344 0 0
7:35 am 07:35 Sunny -1 -18.5 -9 -22.8 69 69 WNW 9 15 30.68 1039 10 16.09344 0 0
7:55 am 07:55 Sunny -1 -18.3 -9 -22.7 69 69 WNW 10 17 30.65 1038 10 16.09344 0 0
8:15 am 08:15 Sunny 1 -17 -8 -22 65 65 WNW 13 20 30.65 1038 10 16.09344 0 0
8:35 am 08:35 Sunny 1 -17.2 -7 -21.9 67 67 WNW 15 24 30.65 1038 10 16.09344 0 0
8:55 am 08:55 Sunny 3 -16.2 -6 -21.2 66 66 WNW 10 17 30.68 1039 10 16.09344 0 0
9:15 am 09:15 Sunny 6 -14.7 -4 -19.8 65 65 NW 15 24 30.65 1038 10 16.09344 0 0
9:35 am 09:35 Sunny 9 -13 -2 -18.8 62 62 WNW 10 17 30.65 1038 10 16.09344 0 0
9:55 am 09:55 Sunny 11 -11.8 -1 -18.1 60 60 NW 15 24 30.62 1037 10 16.09344 0 0
10:15 am 10:15 Sunny 11 -11.5 0 -17.9 59 59 NW 16 26 30.62 1037 10 16.09344 0 0
10:35 am 10:35 Sunny 12 -11 0 -17.6 59 59 WNW 17 28 30.62 1037 10 16.09344 0 0
10:55 am 10:55 Sunny 13 -10.5 1 -17.2 58 58 NW 14 22 30.62 1037 10 16.09344 0 0
11:15 am 11:15 Sunny 15 -9.6 2 -16.4 58 58 NW 16 26 30.59 1036 10 16.09344 0 0
11:35 am 11:35 Sunny 16 -9 3 -16.2 56 56 NW 14 22 30.59 1036 10 16.09344 0 0
11:55 am 11:55 Sunny 17 -8.2 4 -15.7 55 55 NW 16 26 30.59 1036 10 16.09344 0 0
12:15 pm 12:15 Sunny 19 -7.4 4 -15.8 51 51 WNW 13 20 30.56 1035 10 16.09344 0 0
12:35 pm 12:35 Sunny 20 -6.9 4 -15.4 51 51 NW 13 20 30.56 1035 10 16.09344 0 0
12:55 pm 12:55 Sunny 20 -6.5 6 -14.5 53 53 W 10 17 30.56 1035 10 16.09344 0 0
1:15 pm 13:15 Sunny 21 -6.3 6 -14.7 52 52 W 9 15 30.56 1035 10 16.09344 0 0
1:35 pm 13:35 Sunny 21 -6 6 -14.6 51 51 WNW 13 20 30.56 1035 10 16.09344 0 0
1:55 pm 13:55 Sunny 22 -5.5 6 -14.4 50 50 WNW 9 15 30.56 1035 10 16.09344 0 0
2:15 pm 14:15 Sunny 23 -5 6 -14.2 49 49 WNW 9 15 30.56 1035 10 16.09344 0 0
2:35 pm 14:35 Sunny 24 -4.6 7 -14 48 48 WNW 10 17 30.5 1033 10 16.09344 0 0
2:55 pm 14:55 Sunny 24 -4.3 7 -14 47 47 WNW 10 17 30.53 1034 10 16.09344 0 0
3:15 pm 15:15 Sunny 25 -4.1 8 -13.5 48 48 WNW 8 13 30.53 1034 10 16.09344 0 0
3:35 pm 15:35 Sunny 25 -4 9 -12.8 51 51 NW 8 13 30.53 1034 10 16.09344 0 0
3:55 pm 15:55 Sunny 25 -3.9 10 -12.3 52 52 WNW 7 11 30.53 1034 10 16.09344 0 0
4:15 pm 16:15 Sunny 25 -4 11 -11.8 55 55 NNW 6 9 30.53 1034 10 16.09344 0 0
4:35 pm 16:35 Sunny 26 -3.2 11 -11.9 51 51 Calm 30.5 1033 10 16.09344 0 0
4:55 pm 16:55 Sunny 25 -4 9 -12.9 50 50 Calm 30.5 1033 10 16.09344 0 0
5:15 pm 17:15 Sunny 25 -4 8 -13.5 48 48 Calm 30.5 1033 10 16.09344 0 0
5:35 pm 17:35 Sunny 24 -4.5 8 -13.4 50 50 Calm 30.5 1033 10 16.09344 0 0
5:55 pm 17:55 Sunny 25 -4.1 9 -13 50 50 Calm 30.5 1033 10 16.09344 0 0
6:15 pm 18:15 Sunny 23 -5 8 -13.1 53 53 Calm 30.53 1034 10 16.09344 0 0
6:35 pm 18:35 Clear 21 -6.3 8 -13.5 57 57 WSW 3 6 30.53 1034 10 16.09344 0 0
6:55 pm 18:55 Clear 19 -7.3 8 -13.5 62 62 SW 7 11 30.5 1033 10 16.09344 0 0
7:15 pm 19:15 Clear 16 -9.1 6 -14.3 66 66 SW 7 11 30.53 1034 10 16.09344 0 0
7:35 pm 19:35 Clear 15 -9.2 6 -14.3 67 67 WSW 6 9 30.53 1034 10 16.09344 0 0
7:55 pm 19:55 Clear 17 -8.5 8 -13.5 68 68 W 6 9 30.53 1034 10 16.09344 0 0
8:15 pm 20:15 Clear 16 -8.9 8 -13.6 69 69 WSW 6 9 30.53 1034 10 16.09344 0 0
8:35 pm 20:35 Clear 13 -10.3 6 -14.6 71 71 W 5 7 30.53 1034 10 16.09344 0 0
8:55 pm 20:55 Clear 13 -10.6 6 -14.5 73 73 W 7 11 30.53 1034 10 16.09344 0 0
9:15 pm 21:15 Clear 10 -12.1 3 -16 73 73 WSW 3 6 30.56 1035 10 16.09344 0 0
9:35 pm 21:35 Clear 9 -12.6 3 -16.1 75 75 Calm 30.56 1035 10 16.09344 0 0
9:55 pm 21:55 Clear 10 -12.5 4 -15.3 80 80 Calm 30.56 1035 10 16.09344 0 0
10:15 pm 22:15 Clear 9 -12.6 3 -16 76 76 Calm 30.56 1035 10 16.09344 0 0
10:35 pm 22:35 Clear 5 -15.1 -2 -19 72 72 Calm 30.62 1037 10 16.09344 0 0
10:55 pm 22:55 Clear 3 -16.2 -2 -18.7 81 81 Calm 30.62 1037 10 16.09344 0 0
11:15 pm 23:15 Clear 3 -15.9 -1 -18.2 83 83 Calm 30.59 1036 10 16.09344 0 0
11:35 pm 23:35 Clear 4 -15.8 -1 -18.1 83 83 NE 5 7 30.56 1035 10 16.09344 0 0

Powered by AerisWeather